[[{"header":{"parameterUnit":"m.s-1","parameterCategory":1,"la1":30.2991,"la2":30.254,"lo1":-89.0895,"lo2":-89.0444,"dy":0.0017,"dx":0.0017,"nx":28,"ny":28,"refTime":"2024-08-07T09:00:00:Z","depth":0,"parameterNumber":2,"parameterNumberName":"U-component_of_WINDS"},"data":[0,0,0,0,0,0,0,0,0,0,0,0,0,0,0,0,0,0,0,0,0,0,0,0,0,0,0,0,0,0,0,0,0,0,0,0,0,0,0,0,0,0,0,0,0,0,0,0,0,0,0,0,0,0,0,0,0,0,2.9202,2.9203,0,2.9316,2.9317,2.9318,2.9292,2.929,2.9288,2.9285,2.9404,2.9409,2.9415,0,0,0,0,0,0,0,0,0,0,0,0,0,2.8963,2.8967,2.9201,2.9203,2.9204,2.9315,2.9317,2.9319,2.9292,2.929,2.9287,2.9284,2.9403,2.9409,2.9415,0,0,0,0,0,0,0,0,0,0,0,0,0,2.9071,2.8969,2.9201,2.9205,2.9206,2.9315,2.9317,2.9319,2.9293,2.929,2.9286,2.9283,2.9401,2.9408,2.9416,2.9529,0,0,2.944,2.9443,0,0,0,0,0,0,0,0,2.9065,2.908,2.9203,2.9204,2.9206,2.9286,2.9276,2.939,2.9294,2.926,2.9285,2.9282,2.9368,2.9378,2.9407,2.9535,2.954,2.944,2.9445,2.9448,2.9451,0,0,0,0,0,0,0,2.9057,2.9075,2.9247,2.9204,2.9207,2.9201,2.9213,2.9298,2.9331,2.9263,2.9261,2.9275,2.9368,2.9399,2.9409,2.9542,2.944,2.9447,2.9452,2.9455,2.977,2.9774,0,0,0,0,0,0,2.9048,2.9068,2.9243,2.925,2.9126,2.9208,2.9221,2.9264,2.933,2.9337,2.9277,2.9273,2.9388,2.94,2.9413,2.9551,2.9448,2.9456,2.946,2.9767,2.9771,2.9775,0,0,0,0,0,0,2.9043,2.9064,2.9238,2.9159,2.9181,2.9216,2.9264,2.9268,2.9299,2.9341,2.9347,2.9303,2.9386,2.9402,2.9501,2.9555,2.9459,2.9466,2.9762,2.9768,2.9773,2.9828,0,0,0,0,0,0,2.9036,2.9062,2.9105,2.916,2.9185,2.9323,2.9267,2.9272,2.9312,2.9308,2.9367,2.9373,2.9384,2.9489,2.9509,2.9564,2.9472,2.9757,2.9765,2.9771,2.9821,2.9835,2.9846,0,0,0,0,0,2.9028,2.9116,2.9107,2.9129,2.9239,2.9327,2.9341,2.9351,2.9317,2.9361,2.9388,2.9371,2.9546,2.95,2.9521,2.958,2.9754,2.9763,2.9771,2.9816,2.9832,2.9846,0,0,0,0,0,0,2.9067,2.9123,2.9114,2.9223,2.927,2.9322,2.9378,2.9368,2.9426,2.942,2.9431,2.9444,2.9545,2.9572,2.9519,2.9694,2.9645,2.9658,2.9672,2.9688,2.97,2.9692,2.9479,0,0,0,0,0,2.9088,2.9154,2.92,2.9291,2.9315,2.9343,2.9381,2.9385,2.9434,2.9454,2.9489,2.9538,2.9604,2.9647,2.971,2.9825,2.9838,2.9876,2.9888,2.9898,2.991,2.9973,2.9991,2.9802,2.9802,2.9802,0,0,2.9133,2.9172,2.9213,2.93,2.9337,2.9406,2.936,2.9434,2.9485,2.9466,2.9561,2.9588,2.9644,2.9751,2.98,2.9777,2.9965,2.9909,2.9916,2.9923,2.9984,3.0001,3.0017,2.9808,2.9807,2.9806,0,0,2.925,2.9285,2.9366,2.9404,2.946,2.9478,2.9497,2.9551,2.9568,2.9663,2.9651,2.9712,2.9826,2.9866,2.9902,3.0034,3.0022,3.0055,3.0119,3.0181,3.0196,3.0209,3.0257,3.0274,3.0066,3.0066,3.0066,0,2.9298,2.94,2.9409,2.9484,2.9524,2.9509,2.9591,2.9628,2.9703,2.973,2.9703,2.9846,2.9882,2.9999,3.0032,3.0061,3.0084,3.0048,3.0193,3.0206,3.0219,3.0265,3.0283,3.007,3.0069,3.0069,3.0068,0,2.9458,2.9529,2.9587,2.9659,2.9705,2.9783,2.9804,2.985,2.985,2.9871,2.9969,3.0012,3.0084,3.0112,3.0113,3.023,3.0214,3.019,3.0141,3.024,3.0284,3.0301,3.0075,3.0073,3.0072,3.0071,0,0,2.9602,2.9678,2.9699,2.9732,2.9794,2.9849,2.9928,2.9997,3.0037,3.0089,3.0155,3.0252,3.023,3.0271,3.0276,3.033,3.0434,3.03,3.0301,3.0324,3.0566,3.0584,3.0604,3.0426,3.0429,3.0432,3.0562,0,2.9725,2.9862,2.9872,2.9997,3.0063,3.005,3.0119,3.0164,3.0186,3.0246,3.027,3.0339,3.0304,3.0329,3.0382,3.041,3.0483,3.0401,3.0489,3.0492,3.0476,3.0627,3.0646,3.0767,3.0579,3.0582,3.0584,0,2.9886,2.9943,3.0074,3.0126,3.0155,3.0216,3.0281,3.0338,3.039,3.0402,3.0448,3.0446,3.0527,3.0475,3.0589,3.0532,3.0569,3.0588,3.0593,3.0602,3.0544,3.0641,3.0806,3.0824,3.061,3.0608,3.0606,0,2.998,3.0089,3.0181,3.0209,3.0273,3.0317,3.0345,3.0394,3.0436,3.0493,3.052,3.0586,3.0623,3.0675,3.0691,3.0652,3.0804,3.0754,3.0817,3.0817,3.085,3.0848,3.1024,3.0873,3.0873,3.0872,3.0872,0,3.0116,3.0197,3.0224,3.0281,3.0371,3.0383,3.0472,3.0498,3.0542,3.0604,3.0598,3.0657,3.0674,3.0737,3.0751,3.0843,3.0859,3.0872,3.0874,3.0873,3.0871,3.0897,3.089,3.0877,3.0876,3.0875,3.0874,0,3.0236,3.0257,3.0357,3.0409,3.0424,3.0489,3.0534,3.0589,3.061,3.0689,3.0708,3.0741,3.0814,3.0836,3.0924,3.0933,3.1041,3.1036,3.1024,3.1024,3.1087,3.1081,3.1286,3.1314,3.1144,3.1146,3.1147,0,3.0322,3.0383,3.0442,3.0483,3.0514,3.058,3.0622,3.0636,3.0681,3.0745,3.0793,3.0865,3.0923,3.1041,3.1073,3.1141,3.1138,3.1205,3.1148,3.1145,3.114,3.1136,3.1143,3.1216,3.1218,3.1219,3.122,0,3.0472,3.048,3.054,3.0606,3.0656,3.0708,3.0758,3.0793,3.0814,3.0864,3.0939,3.0984,3.1074,3.1146,3.1215,3.1246,3.1238,3.1238,3.1257,3.1256,3.1246,3.1253,3.1054,3.1233,3.1232,3.1231,3.1231,3.123,3.0578,3.0633,3.0682,3.0751,3.079,3.0837,3.0892,3.0919,3.0981,3.1055,3.106,3.1141,3.1192,3.1283,3.1317,3.1382,3.1362,3.1389,3.1395,3.1402,3.1408,3.1235,3.1394,3.1394,3.1393,3.1393,3.1393,0,3.0729,3.076,3.0823,3.0893,3.0947,3.0934,3.0988,3.1035,3.1106,3.1154,3.1212,3.1298,3.1368,3.1406,3.1476,3.152,3.1518,3.1538,3.1535,3.1543,3.1421,3.1398,3.1539,3.1539,3.1539,3.1539,3.1539,3.1539,3.0813,3.0905,3.0919,3.103,3.1062,3.114,3.1173,3.1217,3.1255,3.1352,3.141,3.1433,3.1478,3.1551,3.1615,3.1625,3.1651,3.1674,3.1681,3.1566,3.1551,3.1537,3.1516,3.1679,3.1679,3.1798,3.1799,3.18]},{"header":{"parameterUnit":"m.s-1","parameterCategory":1,"la1":30.2991,"la2":30.254,"lo1":-89.0895,"lo2":-89.0444,"dy":0.0017,"dx":0.0017,"nx":28,"ny":28,"refTime":"2024-08-07T09:00:00:Z","depth":0,"parameterNumber":3,"parameterNumberName":"V-component_of_WINDS"},"data":[0,0,0,0,0,0,0,0,0,0,0,0,0,0,0,0,0,0,0,0,0,0,0,0,0,0,0,0,0,0,0,0,0,0,0,0,0,0,0,0,0,0,0,0,0,0,0,0,0,0,0,0,0,0,0,0,0,0,-0.5748,-0.5748,0,-0.5804,-0.5804,-0.5805,-0.5827,-0.5827,-0.5827,-0.5827,-0.5884,-0.5886,-0.5887,0,0,0,0,0,0,0,0,0,0,0,0,0,-0.5661,-0.5663,-0.5748,-0.5749,-0.5749,-0.5803,-0.5804,-0.5805,-0.5827,-0.5827,-0.5827,-0.5827,-0.5883,-0.5885,-0.5887,0,0,0,0,0,0,0,0,0,0,0,0,0,-0.5706,-0.5663,-0.5748,-0.5767,-0.5769,-0.5803,-0.5804,-0.5805,-0.5827,-0.5827,-0.5827,-0.5827,-0.5883,-0.5885,-0.5888,-0.5907,0,0,-0.5895,-0.5896,0,0,0,0,0,0,0,0,-0.5704,-0.5709,-0.5763,-0.5766,-0.5768,-0.5808,-0.5795,-0.5839,-0.5827,-0.5805,-0.5827,-0.5827,-0.5859,-0.5863,-0.5874,-0.5909,-0.5912,-0.5895,-0.5897,-0.5898,-0.5899,0,0,0,0,0,0,0,-0.57,-0.5707,-0.577,-0.5764,-0.5767,-0.5773,-0.5779,-0.5803,-0.5833,-0.5807,-0.5809,-0.5815,-0.586,-0.5872,-0.5876,-0.5913,-0.5895,-0.5897,-0.5899,-0.59,-0.5967,-0.5968,0,0,0,0,0,0,-0.5694,-0.5704,-0.5768,-0.5772,-0.5735,-0.5775,-0.5782,-0.5796,-0.5832,-0.5838,-0.5815,-0.5816,-0.5868,-0.5873,-0.5878,-0.5903,-0.5898,-0.59,-0.5902,-0.5967,-0.5967,-0.5968,0,0,0,0,0,0,-0.5692,-0.57,-0.5766,-0.5738,-0.5747,-0.5776,-0.5792,-0.5797,-0.5808,-0.5838,-0.5844,-0.5822,-0.5868,-0.5874,-0.59,-0.5905,-0.5901,-0.5903,-0.5967,-0.5967,-0.5967,-0.5953,0,0,0,0,0,0,-0.569,-0.5699,-0.5706,-0.5738,-0.5749,-0.5786,-0.5792,-0.5798,-0.5813,-0.5814,-0.5846,-0.5851,-0.5868,-0.5896,-0.5902,-0.5909,-0.5905,-0.5966,-0.5967,-0.5967,-0.5953,-0.5953,-0.5953,0,0,0,0,0,-0.5686,-0.57,-0.5706,-0.5714,-0.5758,-0.5787,-0.5793,-0.5812,-0.5813,-0.5821,-0.584,-0.585,-0.5904,-0.5898,-0.5905,-0.5913,-0.5966,-0.5967,-0.5967,-0.5954,-0.5953,-0.5953,0,0,0,0,0,0,-0.5667,-0.5704,-0.5712,-0.5736,-0.5758,-0.579,-0.5801,-0.5811,-0.5833,-0.5834,-0.5857,-0.5864,-0.5887,-0.5903,-0.5896,-0.5934,-0.5936,-0.5938,-0.5923,-0.5923,-0.5923,-0.5918,-0.5907,0,0,0,0,0,-0.5666,-0.5685,-0.5717,-0.5735,-0.5746,-0.5771,-0.5784,-0.5798,-0.5821,-0.5831,-0.5852,-0.5874,-0.5897,-0.5911,-0.5933,-0.5956,-0.5964,-0.5965,-0.5965,-0.5964,-0.5966,-0.598,-0.5981,-0.597,-0.597,-0.597,0,0,-0.5663,-0.5686,-0.5697,-0.5732,-0.575,-0.5771,-0.5779,-0.58,-0.5815,-0.5834,-0.5859,-0.5875,-0.5902,-0.5927,-0.5939,-0.594,-0.5971,-0.5965,-0.5965,-0.5967,-0.5981,-0.5982,-0.5983,-0.597,-0.597,-0.597,0,0,-0.5668,-0.5687,-0.5705,-0.5723,-0.5751,-0.5769,-0.5773,-0.5804,-0.5815,-0.5841,-0.5856,-0.5874,-0.5912,-0.5931,-0.5945,-0.5958,-0.5968,-0.5965,-0.5964,-0.5978,-0.5978,-0.5979,-0.5984,-0.5986,-0.5966,-0.5966,-0.5966,0,-0.5661,-0.5692,-0.5713,-0.5733,-0.5748,-0.5766,-0.5784,-0.5801,-0.5835,-0.5845,-0.5847,-0.5895,-0.5914,-0.5944,-0.5947,-0.5958,-0.5964,-0.5961,-0.5977,-0.5978,-0.5979,-0.5984,-0.5986,-0.5966,-0.5966,-0.5966,-0.5966,0,-0.5682,-0.5703,-0.5714,-0.5746,-0.5763,-0.5782,-0.5806,-0.582,-0.5832,-0.5849,-0.5875,-0.5899,-0.5927,-0.5935,-0.5947,-0.5966,-0.5967,-0.5972,-0.5974,-0.5979,-0.5984,-0.5986,-0.5965,-0.5965,-0.5965,-0.5965,0,0,-0.5676,-0.572,-0.5724,-0.5739,-0.5772,-0.5789,-0.5809,-0.5836,-0.5848,-0.5871,-0.5888,-0.592,-0.5926,-0.5942,-0.5956,-0.5968,-0.5978,-0.5972,-0.5973,-0.5972,-0.6001,-0.5997,-0.5999,-0.5985,-0.5985,-0.5985,-0.5999,0,-0.5686,-0.5722,-0.5742,-0.577,-0.5791,-0.5809,-0.5826,-0.5848,-0.5865,-0.5885,-0.5903,-0.5925,-0.5931,-0.5941,-0.5954,-0.5974,-0.5984,-0.5973,-0.6001,-0.6002,-0.5994,-0.6001,-0.5997,-0.6008,-0.6001,-0.6002,-0.6002,0,-0.5702,-0.5725,-0.5755,-0.5786,-0.5795,-0.5811,-0.5837,-0.5856,-0.5882,-0.5893,-0.5912,-0.5926,-0.5948,-0.5949,-0.5981,-0.5973,-0.5986,-0.5998,-0.5999,-0.6002,-0.6002,-0.6005,-0.6013,-0.6014,-0.6005,-0.6005,-0.6005,0,-0.5695,-0.5733,-0.5756,-0.5769,-0.5805,-0.5816,-0.5832,-0.5857,-0.5873,-0.5896,-0.5906,-0.5932,-0.5946,-0.5966,-0.5987,-0.5985,-0.6016,-0.6019,-0.6027,-0.6026,-0.6032,-0.6031,-0.6042,-0.604,-0.604,-0.604,-0.604,0,-0.5703,-0.5721,-0.5754,-0.5768,-0.5789,-0.5812,-0.5832,-0.5849,-0.5872,-0.589,-0.5907,-0.5924,-0.5951,-0.5971,-0.5988,-0.6012,-0.6018,-0.6028,-0.6032,-0.6026,-0.6025,-0.6035,-0.6035,-0.6041,-0.6041,-0.6041,-0.6041,0,-0.5699,-0.5721,-0.5748,-0.578,-0.5789,-0.5803,-0.5831,-0.5846,-0.5864,-0.5887,-0.5894,-0.5922,-0.5947,-0.597,-0.6003,-0.6014,-0.6038,-0.6044,-0.6029,-0.6032,-0.6038,-0.6037,-0.6056,-0.6059,-0.6055,-0.6055,-0.6055,0,-0.5703,-0.5717,-0.5751,-0.5765,-0.578,-0.5802,-0.5818,-0.5841,-0.5856,-0.5887,-0.5898,-0.5925,-0.5947,-0.5986,-0.6009,-0.6035,-0.6041,-0.6046,-0.6045,-0.6039,-0.6042,-0.604,-0.6042,-0.6046,-0.6045,-0.6045,-0.6045,0,-0.5708,-0.5718,-0.574,-0.5766,-0.5784,-0.5806,-0.5828,-0.5838,-0.5865,-0.5882,-0.5908,-0.5925,-0.5959,-0.5985,-0.6014,-0.6031,-0.6043,-0.6046,-0.6049,-0.6043,-0.6034,-0.6039,-0.6029,-0.6045,-0.6045,-0.6045,-0.6045,-0.6045,-0.5708,-0.5721,-0.5748,-0.5772,-0.5791,-0.5811,-0.5827,-0.5847,-0.5869,-0.5898,-0.5911,-0.5937,-0.5963,-0.6003,-0.6019,-0.6041,-0.6043,-0.6048,-0.6049,-0.605,-0.6049,-0.6031,-0.6046,-0.6046,-0.6046,-0.6046,-0.6046,0,-0.5714,-0.5732,-0.5753,-0.5784,-0.5803,-0.5813,-0.5838,-0.5853,-0.5876,-0.5899,-0.5921,-0.5951,-0.5977,-0.6002,-0.6029,-0.6041,-0.6048,-0.6048,-0.6047,-0.6051,-0.6045,-0.6039,-0.6042,-0.6042,-0.6042,-0.6042,-0.6042,-0.6042,-0.5719,-0.5743,-0.5757,-0.579,-0.5809,-0.5834,-0.5848,-0.5867,-0.5886,-0.5918,-0.594,-0.5956,-0.5981,-0.601,-0.6034,-0.6041,-0.605,-0.6049,-0.6057,-0.6051,-0.6051,-0.6051,-0.6046,-0.6051,-0.6051,-0.6062,-0.6062,-0.6062]}]]